• In Hungary
  • List of Countries
  • For 7 days
  • Water Temperature
  • Satellite Maps
  • Weather Map
  • News
  • Weather Widgets
  • user-avatar
    Login

    Hourly Weather Bekescsaba

    Today, 20 June, Wednesday

    Time Temperature Precipitation Wind Pressure Humidity
    00:00 +22°C° 0 mm 1 mps 757 mmHg 79%
    01:00 +22°C° 0 mm 1 mps 757 mmHg 80%
    02:00 +21°C° 0.1 mm 1 mps 757 mmHg 82%
    03:00 +21°C° 0.1 mm 1 mps 757 mmHg 84%
    04:00 +21°C° 0.1 mm 1 mps 757 mmHg 86%
    05:00 +22°C° 0 mm 1 mps 757 mmHg 82%
    06:00 +24°C° 0 mm 1 mps 757 mmHg 78%
    07:00 +26°C° 0 mm 1 mps 758 mmHg 71%
    08:00 +27°C° 0 mm 2 mps 758 mmHg 67%
    09:00 +28°C° 0 mm 2 mps 758 mmHg 62%
    10:00 +30°C° 0 mm 2 mps 758 mmHg 58%
    11:00 +31°C° 0 mm 2 mps 757 mmHg 54%
    12:00 +31°C° 0 mm 2 mps 757 mmHg 50%
    13:00 +32°C° 0 mm 2 mps 757 mmHg 47%
    14:00 +32°C° 0 mm 2 mps 757 mmHg 47%
    15:00 +32°C° 0 mm 2 mps 757 mmHg 48%
    16:00 +32°C° 0 mm 1 mps 756 mmHg 48%
    17:00 +30°C° 0 mm 1 mps 756 mmHg 53%
    18:00 +29°C° 0 mm 1 mps 756 mmHg 58%
    19:00 +28°C° 0 mm 1 mps 756 mmHg 63%
    20:00 +27°C° 0 mm 1 mps 756 mmHg 65%
    21:00 +26°C° 0 mm 1 mps 756 mmHg 67%
    22:00 +24°C° 0 mm 1 mps 756 mmHg 69%
    23:00 +24°C° 0 mm 1 mps 756 mmHg 71%

    Tomorrow, 21 June, Thursday

    Time Temperature Precipitation Wind Pressure Humidity
    00:00 +24°C° 0 mm 1 mps 756 mmHg 72%
    01:00 +23°C° 0 mm 1 mps 756 mmHg 74%
    02:00 +23°C° 0 mm 1 mps 756 mmHg 76%
    03:00 +22°C° 0 mm 1 mps 755 mmHg 77%
    04:00 +22°C° 0 mm 1 mps 755 mmHg 79%
    05:00 +24°C° 0 mm 1 mps 755 mmHg 75%
    06:00 +25°C° 0 mm 1 mps 755 mmHg 71%
    07:00 +27°C° 0 mm 1 mps 755 mmHg 67%
    08:00 +28°C° 0 mm 1 mps 755 mmHg 62%
    09:00 +29°C° 0 mm 1 mps 755 mmHg 58%
    10:00 +31°C° 0 mm 1 mps 754 mmHg 54%
    11:00 +31°C° 0 mm 2 mps 754 mmHg 50%
    12:00 +32°C° 0 mm 2 mps 753 mmHg 47%
    13:00 +34°C° 0 mm 2 mps 753 mmHg 44%
    14:00 +32°C° 0 mm 2 mps 752 mmHg 47%
    15:00 +33°C° 0 mm 3 mps 752 mmHg 49%
    16:00 +33°C° 0 mm 3 mps 751 mmHg 52%
    17:00 +30°C° 0 mm 3 mps 751 mmHg 58%
    18:00 +29°C° 0 mm 3 mps 751 mmHg 65%
    19:00 +27°C° 0 mm 3 mps 751 mmHg 71%
    20:00 +26°C° 0.3 mm 3 mps 750 mmHg 72%
    21:00 +25°C° 0.3 mm 3 mps 750 mmHg 74%
    22:00 +24°C° 0.3 mm 3 mps 750 mmHg 75%
    23:00 +22°C° 0.5 mm 3 mps 750 mmHg 76%

    Day after tomorrow, 22 June, Friday

    Time Temperature Precipitation Wind Pressure Humidity
    00:00 +22°C° 0.5 mm 3 mps 750 mmHg 78%
    01:00 +21°C° 0.5 mm 2 mps 750 mmHg 79%
    02:00 +21°C° 1.2 mm 3 mps 750 mmHg 83%
    03:00 +20°C° 1.2 mm 3 mps 750 mmHg 86%
    04:00 +20°C° 1.2 mm 3 mps 750 mmHg 90%
    05:00 +20°C° 0.5 mm 4 mps 750 mmHg 87%
    06:00 +20°C° 0.5 mm 5 mps 751 mmHg 83%
    07:00 +21°C° 0.5 mm 7 mps 751 mmHg 80%
    08:00 +20°C° 0 mm 6 mps 752 mmHg 77%
    09:00 +20°C° 0 mm 6 mps 752 mmHg 74%
    10:00 +20°C° 0 mm 6 mps 752 mmHg 71%
    11:00 +19°C° 0 mm 6 mps 753 mmHg 71%
    12:00 +17°C° 0 mm 5 mps 753 mmHg 70%
    13:00 +16°C° 0 mm 5 mps 753 mmHg 69%
    14:00 +16°C° 0 mm 5 mps 753 mmHg 69%
    15:00 +17°C° 0 mm 4 mps 754 mmHg 69%
    16:00 +15°C° 0 mm 4 mps 754 mmHg 69%
    17:00 +15°C° 0.1 mm 4 mps 754 mmHg 71%
    18:00 +16°C° 0.1 mm 3 mps 754 mmHg 73%
    19:00 +14°C° 0.1 mm 3 mps 755 mmHg 76%
    20:00 +13°C° 0 mm 3 mps 755 mmHg 77%
    21:00 +13°C° 0 mm 3 mps 755 mmHg 78%
    22:00 +12°C° 0 mm 4 mps 755 mmHg 80%
    23:00 +12°C° 0 mm 3 mps 756 mmHg 80%

    23 June, Saturday

    Time Temperature Precipitation Wind Pressure Humidity
    00:00 +11°C° 0 mm 3 mps 756 mmHg 80%
    01:00 +11°C° 0 mm 3 mps 756 mmHg 81%
    02:00 +10°C° 0 mm 3 mps 756 mmHg 83%
    03:00 +10°C° 0 mm 3 mps 756 mmHg 85%
    04:00 +9°C° 0 mm 3 mps 756 mmHg 87%
    05:00 +11°C° 0 mm 3 mps 756 mmHg 82%
    06:00 +12°C° 0 mm 3 mps 757 mmHg 76%
    07:00 +14°C° 0 mm 3 mps 757 mmHg 71%
    08:00 +17°C° 0 mm 3 mps 757 mmHg 65%
    09:00 +18°C° 0 mm 3 mps 757 mmHg 59%
    10:00 +20°C° 0 mm 2 mps 757 mmHg 53%
    11:00 +21°C° 0 mm 3 mps 756 mmHg 50%
    12:00 +21°C° 0 mm 3 mps 756 mmHg 47%
    13:00 +22°C° 0 mm 4 mps 756 mmHg 44%
    14:00 +22°C° 0 mm 4 mps 755 mmHg 45%
    15:00 +22°C° 0 mm 4 mps 755 mmHg 46%
    16:00 +22°C° 0 mm 4 mps 755 mmHg 47%
    17:00 +21°C° 0 mm 3 mps 755 mmHg 53%
    18:00 +20°C° 0 mm 3 mps 755 mmHg 59%
    19:00 +18°C° 0 mm 2 mps 755 mmHg 65%
    20:00 +18°C° 0 mm 2 mps 756 mmHg 66%
    21:00 +17°C° 0 mm 2 mps 756 mmHg 67%
    22:00 +16°C° 0 mm 3 mps 756 mmHg 68%
    23:00 +15°C° 0 mm 2 mps 756 mmHg 71%

    24 June, Sunday

    Time Temperature Precipitation Wind Pressure Humidity
    00:00 +14°C° 0 mm 2 mps 756 mmHg 73%
    01:00 +13°C° 0 mm 2 mps 756 mmHg 76%
    02:00 +12°C° 0 mm 2 mps 756 mmHg 78%
    03:00 +10°C° 0 mm 2 mps 757 mmHg 80%
    04:00 +10°C° 0 mm 2 mps 757 mmHg 82%
    05:00 +12°C° 0 mm 2 mps 757 mmHg 76%
    06:00 +14°C° 0 mm 2 mps 757 mmHg 71%
    07:00 +16°C° 0 mm 2 mps 757 mmHg 65%
    08:00 +17°C° 0 mm 2 mps 757 mmHg 60%
    09:00 +19°C° 0 mm 3 mps 757 mmHg 56%
    10:00 +20°C° 0 mm 3 mps 757 mmHg 51%
    11:00 +21°C° 0 mm 3 mps 757 mmHg 50%
    12:00 +21°C° 0 mm 3 mps 757 mmHg 48%
    13:00 +22°C° 0 mm 3 mps 756 mmHg 47%
    14:00 +22°C° 0 mm 3 mps 756 mmHg 48%
    15:00 +22°C° 0 mm 3 mps 756 mmHg 48%
    16:00 +22°C° 0 mm 3 mps 756 mmHg 49%
    17:00 +21°C° 0 mm 3 mps 756 mmHg 54%
    18:00 +19°C° 0 mm 2 mps 756 mmHg 59%
    19:00 +18°C° 0 mm 2 mps 756 mmHg 63%
    20:00 +17°C° 0 mm 2 mps 757 mmHg 64%
    21:00 +16°C° 0 mm 2 mps 757 mmHg 65%
    22:00 +15°C° 0 mm 2 mps 757 mmHg 66%
    23:00 +14°C° 0 mm 2 mps 757 mmHg 68%

    25 June, Monday

    Time Temperature Precipitation Wind Pressure Humidity
    00:00 +14°C° 0 mm 2 mps 757 mmHg 70%
    01:00 +13°C° 0 mm 2 mps 757 mmHg 72%
    02:00 +13°C° 0 mm 2 mps 757 mmHg 75%
    03:00 +13°C° 0 mm 2 mps 757 mmHg 78%
    04:00 +12°C° 0 mm 2 mps 757 mmHg 81%
    05:00 +14°C° 0 mm 2 mps 757 mmHg 77%
    06:00 +16°C° 0 mm 2 mps 757 mmHg 72%
    07:00 +18°C° 0 mm 2 mps 757 mmHg 68%
    08:00 +19°C° 0 mm 3 mps 757 mmHg 62%
    09:00 +21°C° 0 mm 3 mps 757 mmHg 57%
    10:00 +22°C° 0 mm 3 mps 757 mmHg 51%
    11:00 +24°C° 0 mm 3 mps 757 mmHg 48%
    12:00 +25°C° 0 mm 3 mps 757 mmHg 46%
    13:00 +26°C° 0 mm 3 mps 756 mmHg 43%
    14:00 +26°C° 0 mm 3 mps 756 mmHg 44%
    15:00 +26°C° 0 mm 3 mps 756 mmHg 44%
    16:00 +26°C° 0 mm 3 mps 756 mmHg 45%
    17:00 +25°C° 0 mm 3 mps 756 mmHg 51%
    18:00 +22°C° 0 mm 3 mps 756 mmHg 58%
    19:00 +21°C° 0 mm 2 mps 756 mmHg 64%
    20:00 +19°C° 0 mm 2 mps 756 mmHg 66%
    21:00 +18°C° 0 mm 2 mps 757 mmHg 68%
    22:00 +17°C° 0 mm 2 mps 757 mmHg 70%
    23:00 +17°C° 0 mm 2 mps 757 mmHg 73%
    Show more